Location: Sternwarte ZA, Rosenfeld-Brittheim
(48.2889°N, 8.6789°E)
Time: 10:23:36
(UTC+02:00)

ISS - Pass Details

Date: 22 May 2018
Orbit: 402 x 407 km, 51.6° (Epoch: 23 May)

Event Time Altitude Azimuth Distance (km) Brightness Sun altitude
Rises 22:58:26 0° 244° (WSW) 2,314 0.1 -14.1°
Reaches altitude 10° 23:00:30 10° 243° (WSW) 1,456 -0.9 -14.3°
Maximum altitude 23:03:46 82° 157° (SSE) 412 -4.0 -14.6°
Drops below altitude 10° 23:07:02 10° 69° (ENE) 1,460 -1.1 -14.9°
Sets 23:09:07 0° 68° (ENE) 2,321 -0.1 -15.1°
